Tracking 21970 objects as of 25-Nov-2020
HD Live streaming from Space Station
objects crossing your sky now

IRIDIUM 33 DEB

Track IRIDIUM 33 DEB now!
10-day predictions


NORAD ID: 38233
Int'l Code: 1997-051ZH
Perigee: 724.0 km
Apogee: 948.9 km
Inclination: 86.2 °
Period: 101.5 minutes
Semi major axis: 7207 km
RCS: 0.0081 m2 (small)
Launch date: September 14, 1997
Source: United States (US)
Launch site: TYURATAM MISSILE AND SPACE COMPLEX (TTMTR)

Note: This is SATELLITE DEBRIS
aabbcc
Your satellite tracking list
Your tracking list is empty




NASA's NSSDC Master Catalog

Two Line Element Set (TLE):
1 38233U 97051ZH  20329.19705691 +.00003640 +00000-0 +15437-2 0  9990
2 38233 086.2138 122.9350 0156011 011.3392 161.7845 14.18822697393234
Source of the keplerian elements: AFSPC